Tracking 30313 objects as of 21-Apr-2025
HD Live streaming from Space Station
objects crossing your sky now

INTASAT

Track INTASAT now!
10-day predictions
INTASAT is classified as:


NORAD ID: 7531
Int'l Code: 1974-089C
Perigee: 1,448.4 km
Apogee: 1,465.6 km
Inclination: 102.0 °
Period: 114.9 minutes
Semi major axis: 7827 km
RCS: 0.5293 m2 (medium)
Launch date: November 15, 1974
Source: Spain (SPN)
Launch site: AIR FORCE WESTERN TEST RANGE (AFWTR)
Your satellite tracking list
Your tracking list is empty




NASA's NSSDC Master Catalog

Two Line Element Set (TLE):
1 07531U 74089C   25110.50756090 -.00000018  00000-0  17851-3 0  9990
2 07531 101.9964 113.4130 0010991 226.9853 263.1440 12.53516838307312
Source of the keplerian elements: AFSPC